Change the Weather History Date:

Monday, March 18, 2013

  Actual Average (KOGB) Record (KOGB)
Temperature  
Mean Temperature 60 °F 57 °F  
Max Temperature 69 °F 70 °F 86 °F (2011)
Min Temperature 51 °F 45 °F 27 °F (1967)
Degree Days  
Heating Degree Days 5 8  
Month to date heating degree days 188  
Since 1 July heating degree days 2120  
Cooling Degree Days 0 1  
Month to date cooling degree days 10  
Year to date cooling degree days 13  
Growing Degree Days 10 (Base 50)    
Moisture  
Dew Point 55 °F    
Average Humidity 82    
Maximum Humidity 100    
Minimum Humidity 72    
Precipitation  
Precipitation 0.40 in 0.12 in 1.66 in (1983)
Month to date precipitation 2.36  
Year to date precipitation 9.93  
Sea Level Pressure  
Sea Level Pressure 29.98 in    
Wind  
Wind Speed 3 mph (SSE)    
Max Wind Speed 20 mph    
Max Gust Speed 34 mph    
Visibility 9 miles    
Events Rain , Thunderstorm    
T = Trace of Precipitation, MM = Missing Value Source: NWS Daily Summary

Daily Weather History Graph

Daily Weather History Graph

Search for Another Location

Airport or City:

Trip Planner

Search our weather history database for the weather conditions in past years. The results will help you decide how hot, cold, wet, or windy it might be!

Date:

Astronomy

Mar. 18, 2013 Rise Set
Actual Time 7:31 AM EDT 7:35 PM EDT
Civil Twilight 7:06 AM EDT 8:00 PM EDT
Nautical Twilight 6:38 AM EDT 8:29 PM EDT
Astronomical Twilight 6:09 AM EDT 8:58 PM EDT
Moon 11:47 AM EDT (3/18) 1:17 AM EDT (3/18)
Length of Visible Light 12h 53m
Length of Day
12h 04m
Waxing Crescent, 40% of the Moon is Illuminated
Mar 18
Waxing Crescent
Mar 19
First Quarter
Mar 27
Full
Apr 3
Last Quarter
Apr 10
New

Hourly Weather History & Observations

Time (EDT) Temp. Dew Point Humidity Pressure Visibility Wind Dir Wind Speed Gust Speed Precip Events Conditions
12:15 AM 64.4 °F 55.4 °F 73% 30.04 in 10.0 mi Calm Calm - N/A   Mostly Cloudy
12:35 AM 64.4 °F 55.4 °F 73% 30.03 in 10.0 mi Calm Calm - N/A   Mostly Cloudy
12:55 AM 64.4 °F 55.4 °F 73% 30.02 in 10.0 mi Calm Calm - N/A   Partly Cloudy
1:15 AM 64.4 °F 55.4 °F 73% 30.02 in 10.0 mi SSW 4.6 mph - N/A   Clear
1:35 AM 62.6 °F 55.4 °F 77% 30.02 in 10.0 mi Calm Calm - N/A   Clear
1:55 AM 62.6 °F 55.4 °F 77% 30.01 in 10.0 mi Calm Calm - N/A   Clear
2:15 AM 62.6 °F 55.4 °F 77% 30.01 in 10.0 mi Calm Calm - N/A   Clear
2:35 AM 60.8 °F 55.4 °F 82% 30.02 in 10.0 mi Calm Calm - N/A   Clear
2:55 AM 60.8 °F 55.4 °F 82% 30.02 in 10.0 mi Calm Calm - N/A   Clear
3:15 AM 60.8 °F 55.4 °F 82% 30.02 in 10.0 mi SW 3.5 mph - N/A   Clear
3:35 AM 60.8 °F 53.6 °F 77% 30.03 in 10.0 mi SW 3.5 mph - N/A   Scattered Clouds
3:55 AM 59.0 °F 51.8 °F 77% 30.04 in 10.0 mi SW 3.5 mph - N/A   Scattered Clouds
4:15 AM 60.8 °F 51.8 °F 72% 30.03 in 10.0 mi South 3.5 mph - N/A   Overcast
4:35 AM 60.8 °F 51.8 °F 72% 30.02 in 10.0 mi Calm Calm - N/A   Mostly Cloudy
4:55 AM 59.0 °F 51.8 °F 77% 30.02 in 10.0 mi Calm Calm - N/A   Mostly Cloudy
5:15 AM 57.2 °F 51.8 °F 82% 30.02 in 10.0 mi Calm Calm - N/A   Partly Cloudy
5:35 AM 55.4 °F 51.8 °F 88% 30.03 in 10.0 mi Calm Calm - N/A   Clear
5:55 AM 53.6 °F 51.8 °F 94% 30.04 in 10.0 mi Calm Calm - N/A   Clear
6:15 AM 53.6 °F 51.8 °F 94% 30.04 in 10.0 mi Calm Calm - N/A   Clear
6:35 AM 51.8 °F 48.2 °F 88% 30.05 in 10.0 mi Calm Calm - N/A   Clear
6:55 AM 51.8 °F 50.0 °F 94% 30.06 in 10.0 mi Calm Calm - N/A   Clear
7:15 AM 51.8 °F 50.0 °F 94% 30.06 in 10.0 mi Calm Calm - N/A   Mostly Cloudy
7:35 AM 53.6 °F 51.8 °F 94% 30.06 in 10.0 mi Calm Calm - N/A   Overcast
7:55 AM 53.6 °F 51.8 °F 94% 30.07 in 10.0 mi Calm Calm - N/A   Overcast
8:15 AM 55.4 °F 53.6 °F 94% 30.07 in 10.0 mi Calm Calm - N/A   Overcast
8:35 AM 55.4 °F 53.6 °F 94% 30.07 in 10.0 mi Calm Calm - N/A   Overcast
8:55 AM 57.2 °F 53.6 °F 88% 30.07 in 10.0 mi Calm Calm - N/A   Overcast
9:15 AM 60.8 °F 53.6 °F 77% 30.07 in 10.0 mi Calm Calm - N/A   Overcast
9:35 AM 59.0 °F 53.6 °F 82% 30.07 in 10.0 mi Calm Calm - N/A   Mostly Cloudy
9:55 AM 59.0 °F 53.6 °F 82% 30.07 in 10.0 mi Calm Calm - N/A   Overcast
10:15 AM 59.0 °F 53.6 °F 82% 30.07 in 10.0 mi Calm Calm - N/A   Overcast
10:35 AM 60.8 °F 53.6 °F 77% 30.06 in 10.0 mi SE 5.8 mph - N/A   Overcast
10:55 AM 62.6 °F 55.4 °F 77% 30.06 in 10.0 mi SE 6.9 mph - N/A   Overcast
11:15 AM 62.6 °F 55.4 °F 77% 30.05 in 10.0 mi SSE 6.9 mph - N/A   Overcast
11:35 AM 62.6 °F 55.4 °F 77% 30.05 in 10.0 mi South 6.9 mph - N/A   Overcast
11:55 AM 62.6 °F 55.4 °F 77% 30.04 in 10.0 mi South 6.9 mph - N/A   Overcast
12:15 PM 62.6 °F 57.2 °F 82% 30.04 in 10.0 mi South 5.8 mph - N/A   Overcast
12:35 PM 62.6 °F 57.2 °F 82% 30.03 in 10.0 mi South 5.8 mph - N/A   Overcast
12:55 PM 62.6 °F 57.2 °F 82% 30.03 in 10.0 mi South 6.9 mph - N/A   Overcast
1:15 PM 60.8 °F 57.2 °F 88% 30.03 in 2.0 mi Calm Calm - N/A   Light Drizzle
1:35 PM 60.8 °F 59.0 °F 94% 30.01 in 9.0 mi Calm Calm - N/A   Overcast
1:55 PM 62.6 °F 59.0 °F 88% 30.00 in 10.0 mi Calm Calm - N/A   Overcast
2:15 PM 62.6 °F 57.2 °F 82% 29.99 in 10.0 mi ESE 3.5 mph - N/A   Overcast
2:35 PM 64.4 °F 57.2 °F 77% 29.97 in 10.0 mi ESE 6.9 mph - N/A   Overcast
3:15 PM 66.2 °F 57.2 °F 73% 29.95 in 10.0 mi SSE 4.6 mph - N/A   Mostly Cloudy
3:35 PM 66.2 °F 59.0 °F 78% 29.94 in 10.0 mi SE 6.9 mph - N/A   Mostly Cloudy
3:55 PM 68.0 °F 59.0 °F 73% 29.93 in 10.0 mi South 5.8 mph - N/A   Overcast
4:15 PM 68.0 °F 59.0 °F 73% 29.92 in 10.0 mi South 4.6 mph - N/A   Overcast
4:35 PM 66.2 °F 59.0 °F 78% 29.92 in 10.0 mi Calm Calm - N/A   Overcast
4:55 PM 69.8 °F 60.8 °F 73% 29.90 in 10.0 mi SSE 4.6 mph - N/A   Mostly Cloudy
5:15 PM 69.8 °F 60.8 °F 73% 29.89 in 10.0 mi SE 8.1 mph - N/A   Mostly Cloudy
5:35 PM 69.8 °F 60.8 °F 73% 29.88 in 10.0 mi SSE 6.9 mph - N/A   Mostly Cloudy
5:55 PM 69.8 °F 60.8 °F 73% 29.89 in 10.0 mi SE 9.2 mph - N/A   Mostly Cloudy
6:15 PM 66.2 °F 60.8 °F 83% 29.89 in 10.0 mi SE 8.1 mph - N/A   Overcast
6:35 PM 66.2 °F 60.8 °F 83% 29.88 in 10.0 mi SE 5.8 mph - N/A   Overcast
6:55 PM 66.2 °F 60.8 °F 83% 29.88 in 10.0 mi SE 5.8 mph - N/A   Overcast
7:15 PM 66.2 °F 59.0 °F 78% 29.87 in 10.0 mi East 4.6 mph - N/A   Overcast
7:35 PM 66.2 °F 59.0 °F 78% 29.86 in 10.0 mi ESE 8.1 mph - N/A   Overcast
7:55 PM 66.2 °F 59.0 °F 78% 29.87 in 10.0 mi ESE 9.2 mph - N/A   Mostly Cloudy
8:15 PM 66.2 °F 57.2 °F 73% 29.86 in 10.0 mi ESE 6.9 mph - N/A   Overcast
8:35 PM 66.2 °F 57.2 °F 73% 29.84 in 10.0 mi SE 11.5 mph 16.1 mph N/A   Scattered Clouds
8:55 PM 64.4 °F 57.2 °F 77% 29.84 in 10.0 mi SE 10.4 mph - N/A Thunderstorm Partly Cloudy
9:15 PM 64.4 °F 57.2 °F 77% 29.84 in 10.0 mi SE 11.5 mph 18.4 mph N/A   Partly Cloudy
9:35 PM 62.6 °F 59.0 °F 88% 29.86 in 5.0 mi South 6.9 mph - 0.01 in Rain Light Rain
9:55 PM 57.2 °F 53.6 °F 88% 29.91 in 1.8 mi NNW 19.6 mph 34.5 mph 0.18 in Rain , Thunderstorm Heavy Thunderstorms and Rain
10:15 PM 53.6 °F 51.8 °F 94% 29.97 in 4.0 mi NNW 8.1 mph 23.0 mph 0.06 in Rain , Thunderstorm Heavy Thunderstorms and Rain
10:35 PM 51.8 °F 50.0 °F 94% 29.96 in 5.0 mi NNE 9.2 mph - 0.13 in Rain , Thunderstorm Heavy Rain
10:55 PM 51.8 °F 50.0 °F 94% 29.95 in 5.0 mi NE 6.9 mph - 0.18 in Rain , Thunderstorm Light Rain
11:15 PM 51.8 °F 48.2 °F 88% 29.91 in 8.0 mi East 8.1 mph - 0.03 in Rain , Thunderstorm Light Rain
11:35 PM 51.8 °F 50.0 °F 94% 29.87 in 9.0 mi ESE 9.2 mph - 0.04 in Rain Light Rain
11:55 PM 51.8 °F 51.8 °F 100% 29.90 in 10.0 mi SSE 5.8 mph - 0.04 in   Overcast